TimePDT,TemperatureF,Dew PointF,Humidity,Sea Level PressureIn,VisibilityMPH,Wind Direction,Wind SpeedMPH,Gust SpeedMPH,PrecipitationIn,Events,Conditions,WindDirDegrees,DateUTC
12:53 AM,89.1,42.1,19,29.68,10.0,WSW,3.5,-,N/A,,Clear,240,2013-09-17 07:53:00
1:53 AM,84.9,46.9,27,29.68,10.0,Calm,Calm,-,N/A,,Clear,0,2013-09-17 08:53:00
2:53 AM,82.0,48.9,31,29.67,10.0,Calm,Calm,-,N/A,,Clear,0,2013-09-17 09:53:00
3:53 AM,82.0,48.0,30,29.67,10.0,Calm,Calm,-,N/A,,Clear,0,2013-09-17 10:53:00
4:53 AM,78.1,50.0,37,29.65,10.0,Calm,Calm,-,N/A,,Clear,0,2013-09-17 11:53:00
5:53 AM,81.0,44.1,27,29.67,10.0,SE,6.9,-,N/A,,Clear,130,2013-09-17 12:53:00
6:53 AM,81.0,45.0,28,29.68,10.0,Calm,Calm,-,N/A,,Clear,0,2013-09-17 13:53:00
7:19 AM,80.6,46.4,30,29.70,2.5,Calm,Calm,-,N/A,,Haze,0,2013-09-17 14:19:00
7:27 AM,80.6,44.6,28,29.70,10.0,Calm,Calm,-,N/A,,Clear,0,2013-09-17 14:27:00
7:53 AM,82.0,48.0,30,29.68,10.0,SW,4.6,-,N/A,,Clear,220,2013-09-17 14:53:00
8:53 AM,88.0,43.0,21,29.68,10.0,SW,4.6,-,N/A,,Clear,230,2013-09-17 15:53:00
9:53 AM,93.9,41.0,16,29.68,10.0,South,3.5,-,N/A,,Clear,190,2013-09-17 16:53:00
10:53 AM,99.0,35.1,11,29.67,10.0,Calm,Calm,-,N/A,,Clear,0,2013-09-17 17:53:00
11:53 AM,102.0,32.0,9,29.65,10.0,Variable,4.6,16.1,N/A,,Clear,0,2013-09-17 18:53:00
12:53 PM,102.9,36.0,10,29.63,10.0,NNW,11.5,25.3,N/A,,Clear,330,2013-09-17 19:53:00
1:53 PM,102.9,39.9,12,29.60,10.0,NW,17.3,25.3,N/A,,Clear,320,2013-09-17 20:53:00
2:53 PM,102.9,37.0,10,29.58,10.0,NNW,21.9,29.9,N/A,,Clear,340,2013-09-17 21:53:00
3:53 PM,102.0,35.1,10,29.57,10.0,North,17.3,32.2,N/A,,Clear,360,2013-09-17 22:53:00
4:53 PM,100.9,35.1,10,29.57,10.0,NW,19.6,28.8,N/A,,Clear,320,2013-09-17 23:53:00
5:53 PM,98.1,37.0,12,29.57,10.0,NNW,18.4,25.3,N/A,,Clear,330,2013-09-18 00:53:00
6:53 PM,93.9,39.0,15,29.58,10.0,NNW,19.6,-,N/A,,Clear,330,2013-09-18 01:53:00
7:53 PM,91.0,37.9,15,29.59,10.0,NNW,19.6,28.8,N/A,,Clear,330,2013-09-18 02:53:00
8:53 PM,89.1,37.0,16,29.60,10.0,NW,17.3,-,N/A,,Clear,310,2013-09-18 03:53:00
9:53 PM,87.1,36.0,16,29.61,10.0,NW,13.8,-,N/A,,Clear,310,2013-09-18 04:53:00
10:53 PM,86.0,35.1,16,29.62,10.0,NW,9.2,-,N/A,,Clear,310,2013-09-18 05:53:00
11:53 PM,82.0,37.9,21,29.62,10.0,SSW,3.5,-,N/A,,Clear,210,2013-09-18 06:53:00